Location: *
(46.1006°N, 1.8394°E)
Time: 23:31:52
(UTC+00:00)

USA 186 - Pass Details

Date: 20 September 2019
Orbit: 261 x 450 km, 96.9° (Epoch: 07 October)

Event Time Altitude Azimuth Distance (km) Brightness Sun altitude
Exits shadow 18:40:43 - 127° (SE) 1,634 4.2 -8.7°
Reaches altitude 10° 18:40:52 10° 126° (SE) 1,579 4.1 -8.7°
Maximum altitude 18:43:43 25° 69° (ENE) 956 3.1 -9.2°
Drops below altitude 10° 18:46:35 10° 13° (NNE) 1,597 4.7 -9.7°
Sets 18:48:51 0° 0° (N) 2,467 5.8 -10.1°
